KD8UYA Weather Reports


Display with metric or nautical units.
time (UTC)temp
F
wind
direction
speed
MPH
gust
MPH
rain 1hr
in
rain 24hr
in
rain mn
in
humidity
%
barometer
mb
20260504044535 49 305 2.0 9.0 0.00 0.00 0.00 72 1010.1
20260504043026 50 251 3.0 9.0 0.00 0.00 0.00 70 1010.2
20260504041528 50 287 4.0 9.0 0.00 0.00 0.00 69 1010.3
20260504040023 50 236 2.0 7.0 0.00 0.00 0.00 70 1010.5
20260504034518 51 217 2.0 7.0 0.00 0.00 0.00 69 1010.6
20260504033022 51 256 2.0 6.0 0.00 0.00 0.00 68 1010.7
20260504031518 51 242 1.0 7.0 0.00 0.00 0.00 69 1010.9
20260504030028 51 316 1.0 7.0 0.00 0.00 0.00 70 1011.1
20260504024517 50 220 2.0 6.0 0.00 0.00 0.00 69 1011.1
20260504023016 50 205 2.0 8.0 0.00 0.00 0.00 69 1011.2
20260504021516 50 202 5.0 12.0 0.00 0.00 0.00 68 1011.3
20260504020019 51 296 4.0 12.0 0.00 0.00 0.00 67 1011.3
20260504014514 51 319 5.0 16.0 0.00 0.00 0.00 64 1011.3
20260504013015 51 259 5.0 12.0 0.00 0.00 0.00 65 1011.1
20260504011514 52 265 0.0 0.0 0.00 0.00 0.00 62 1010.6
20260504010014 53 265 0.0 0.0 0.00 0.00 0.00 59 1010.7
20260504004520 54 268 0.0 4.0 0.00 0.00 0.00 54 1010.7
20260504003012 55 230 2.0 9.0 0.00 0.00 0.00 52 1010.6
20260504001512 55 236 2.0 6.0 0.00 0.00 0.00 50 1010.6
20260504000012 56 286 2.0 9.0 0.00 0.00 0.00 49 1010.7
20260503234521 57 284 6.0 15.0 0.00 0.00 0.00 48 1010.7
20260503233009 58 231 7.0 14.0 0.00 0.00 0.00 47 1010.8
20260503231509 58 244 4.0 12.0 0.00 0.00 0.00 47 1010.9
20260503230011 57 242 5.0 18.0 0.00 0.00 0.00 48 1011.0
20260503224510 57 240 5.0 16.0 0.00 0.00 0.00 48 1011.1
20260503223007 57 256 3.0 15.0 0.00 0.00 0.00 49 1011.2
20260503221505 57 259 4.0 14.0 0.00 0.00 0.00 48 1011.2
20260503220020 58 270 7.0 14.0 0.00 0.00 0.00 47 1011.2
20260503214502 58 201 6.0 15.0 0.00 0.00 0.00 48 1011.3
20260503213004 58 215 10.0 18.0 0.00 0.00 0.00 47 1011.3
20260503211501 57 207 6.0 18.0 0.00 0.00 0.00 48 1011.4
20260503210001 58 236 8.0 15.0 0.00 0.00 0.00 46 1011.4
20260503204559 58 232 2.0 22.0 0.00 0.00 0.00 47 1011.4
20260503203104 58 298 6.0 14.0 0.00 0.00 0.00 48 1011.4
20260503201558 59 261 6.0 16.0 0.00 0.00 0.00 46 1011.7
20260503200058 59 273 9.0 19.0 0.00 0.00 0.00 46 1011.8
20260503194553 58 244 5.0 13.0 0.00 0.00 0.00 48 1012.2
20260503193054 58 296 6.0 16.0 0.00 0.00 0.00 48 1012.5
20260503191550 59 269 7.0 18.0 0.00 0.00 0.00 47 1012.8
20260503190055 57 275 3.0 17.0 0.00 0.00 0.00 53 1012.9
20260503184555 58 234 8.0 16.0 0.00 0.00 0.00 47 1013.2
20260503183054 57 216 6.0 15.0 0.00 0.00 0.00 46 1013.4
20260503181541 57 281 4.0 14.0 0.00 0.00 0.00 50 1013.5
20260503180040 57 265 8.0 15.0 0.00 0.00 0.00 48 1013.6
20260503174536 56 221 7.0 18.0 0.00 0.00 0.00 52 1013.7
20260503173034 56 259 6.0 15.0 0.00 0.00 0.00 53 1013.9
20260503171532 55 298 6.0 18.0 0.00 0.00 0.00 53 1014.2
20260503081512 35 286 0.0 0.0 0.00 0.05 0.00 91 1015.4